Location: Cargedolo
(44.2667°N, 10.5667°E)
Time: 13:02:03
(UTC+00:00)

Daily predictions for brighter satellites

Satellite Brightness Start Highest point End
(mag) Time Altitude Azimuth Time Altitude Azimuth Time Altitude Azimuth
Cosmos 1842 Rocket 3.8 19:11:34 10° N 19:15:59 56° ENE 19:20:24 10° SSE
Cosmos 2278 4.2 19:11:06 10° NNW 19:16:35 48° ENE 19:22:03 10° SE
Resurs 1-3 3.7 19:13:30 10° SSE 19:17:50 65° ENE 19:22:12 10° N
Cosmos 1633 3.1 19:19:10 10° SSE 19:22:32 38° E 19:25:55 10° NNE
Cosmos 2360 Rocket 4.4 19:20:33 10° NNE 19:22:45 12° NE 19:24:56 10° ENE
Nadezhda 4 Rocket 4.2 19:25:07 10° SSE 19:31:03 52° E 19:37:04 10° NNE
Cosmos 1606 2.7 19:27:41 10° N 19:31:27 62° E 19:35:11 10° SSE
Cosmos 1242 Rocket 4.0 19:30:40 10° NNW 19:34:00 37° W 19:37:17 10° SSW
Landsat 7 4.1 19:32:35 10° SSE 19:37:12 54° ENE 19:41:51 10° N
SPOT 3 Rocket 3.9 19:33:52 10° SE 19:38:55 52° ENE 19:43:59 10° N
Cosmos 1825 4.1 19:36:22 10° SW 19:39:46 33° WNW 19:43:12 10° N
ISS -3.2 19:36:35 10° NW 19:39:54 51° NNE 19:42:58 11° ESE
IGS 5A 3.5 19:36:19 10° SSE 19:40:26 64° ENE 19:44:32 10° N
BREEZE-M DEB (TANK) 4.2 19:30:44 10° W 19:43:25 57° NNW 19:47:04 10° ENE
Cosmos 2058 4.0 19:40:28 10° SSW 19:44:31 49° WNW 19:48:38 10° N
Cosmos 1980 Rocket 2.2 19:39:38 10° NNW 19:45:18 86° WSW 19:50:57 10° SSE
MetOp-B 4.5 19:40:10 10° SE 19:45:21 52° ENE 19:50:32 10° N
Cosmos 2369 4.1 19:40:00 10° NNW 19:45:35 63° WSW 19:51:09 10° S
CZ-2C R/B 4.4 19:43:50 10° NNE 19:47:58 34° E 19:51:59 10° SSE
RESURS DK-1 3.0 19:46:09 10° SW 19:50:15 60° WNW 19:54:23 10° NNE
Cosmos 2221 3.1 19:46:07 10° NNW 19:50:21 57° W 19:54:36 10° S
ERBS 4.0 19:48:44 10° WNW 19:51:22 23° SW 19:54:01 10° S
USA 245 4.4 19:47:53 13° SE 19:52:07 40° ENE 19:56:06 10° N
BREEZE-M DEB (TANK) 3.1 19:50:51 10° SW 19:54:08 70° SE 20:05:01 10° ENE
Cosmos 2322 Rocket 3.4 19:50:59 10° N 19:55:51 29° NE 19:59:58 13° ESE
Cosmos 304 Rocket 4.1 19:55:53 10° N 20:00:33 50° ENE 20:03:55 18° SE
BREEZE-M DEB (TANK) 3.6 19:57:35 10° WNW 20:00:49 83° NNE 20:09:24 13° ESE
Cosmos 1538 Rocket 3.9 19:55:41 10° SSW 20:00:54 84° ESE 20:06:06 10° NNE
Cosmos 1933 3.7 19:57:58 10° N 20:01:54 46° ENE 20:04:32 19° SE
Resurs 01 Rocket 1.8 19:58:38 10° S 20:03:04 75° WSW 20:07:31 10° NNW
Cosmos 2151 2.9 20:01:03 10° S 20:05:15 68° E 20:09:30 10° NNE
ERS-2 3.0 20:02:36 10° N 20:06:10 52° WNW 20:09:42 10° SSW
Cosmos 2098 Rocket 2.8 20:03:35 10° SSW 20:06:36 62° W 20:10:09 10° N
Gbstr 26 Del rocket 3.3 20:06:22 10° NW 20:10:00 49° NNE 20:12:57 16° E
Meteor 2-3 Rocket 3.8 20:04:50 10° S 20:10:22 60° E 20:16:01 10° NNE
CARTOSAT-1 4.0 20:09:29 20° SE 20:12:07 45° ENE 20:16:16 10° N
Meteor 2-15 Rocket 4.5 20:07:19 10° N 20:13:23 68° E 20:18:11 17° SSE
Cosmos 2219 Rocket 4.4 20:14:21 10° NNE 20:16:47 13° NE 20:19:13 10° ENE
Ariane Rocket 4.2 20:12:49 10° SSW 20:17:32 39° W 20:22:17 10° NNW
SL-16 R/B 2.4 20:19:02 10° NNW 20:24:39 58° ENE 20:28:03 24° SE
Cosmos 1782 3.0 20:24:25 10° N 20:28:22 54° ENE 20:30:02 30° SE
Cosmos 371 Rocket 4.0 20:24:31 10° NNW 20:29:10 49° WSW 20:32:51 15° S
ARIANE 5 R/B 2.8 20:26:52 26° SE 20:29:13 58° ENE 20:33:35 10° N
Cosmos 1271 Rocket 2.7 20:30:57 10° N 20:34:57 90° WSW 20:36:55 29° S
SPOT 1/Viking Rocket 3.8 20:31:18 17° S 20:35:22 67° WSW 20:40:35 10° NNW
Cosmos 2195 Rocket 4.4 20:31:22 10° S 20:37:31 87° W 20:43:39 10° N
USA 276 2.2 20:34:30 10° WNW 20:37:39 67° NNE 20:38:32 41° E
BREEZE-M DEB (TANK) 2.8 20:35:23 10° WNW 20:38:38 74° SSW 20:43:14 23° SE
Cosmos 1766 Rocket 3.7 20:37:41 30° SSE 20:39:39 56° E 20:43:57 10° NNE
Cosmos 1151 Rocket 3.1 20:37:40 10° N 20:42:00 62° E 20:43:40 35° SSE
ATLAS 5 CENTAUR R/B 4.4 20:39:52 10° N 20:43:08 16° NNE 20:46:44 10° ENE
Cosmos 1328 Rocket 3.8 20:41:52 10° N 20:46:14 52° ENE 20:47:39 36° SE
Cosmos 923 Rocket 4.0 20:41:56 10° SSW 20:47:17 87° WNW 20:52:40 10° NNE
Terra 2.1 20:47:56 33° SE 20:49:47 54° ENE 20:54:26 10° N
ATLAS 3B R/B 3.5 20:45:05 10° NW 20:51:50 46° WSW 20:56:42 20° S
SPOT 5 2.5 20:50:48 37° SSE 20:52:27 80° ENE 20:56:51 10° NNW
USA 267 3.6 20:48:39 10° ENE 20:54:40 38° SE 20:59:02 18° S
Cosmos 1092 Rocket 4.5 20:49:28 10° SSW 20:55:38 61° W 21:01:55 10° N
Cosmos 2082 Rocket 4.5 20:51:40 10° WSW 20:56:17 25° NW 21:00:57 10° N
NOSS 2-1 (C) 3.6 21:00:51 39° ENE 21:00:51 39° ENE 21:03:10 10° NE
Cosmos 2056 Rocket 3.8 20:54:54 10° NNW 21:00:12 58° ENE 21:02:09 36° SE
ERS-1 Rocket 2.9 21:00:35 34° S 21:02:51 82° WSW 21:07:54 10° NNW
BREEZE-M DEB (TANK) 3.7 21:01:10 10° WNW 21:02:58 23° N 21:03:12 23° N
SL-27 R/B 3.0 21:06:23 43° ENE 21:06:23 43° ENE 21:09:19 10° NNE
Meteor 2-21 4.4 21:02:38 28° S 21:06:07 76° E 21:12:17 10° NNE
NOSS 2-1 (D) 3.2 21:08:18 50° ENE 21:08:18 50° ENE 21:10:55 10° NE
Cosmos 2360 Rocket 2.4 21:02:27 10° NNW 21:08:01 58° ENE 21:10:08 36° ESE
Cosmos 2026 Rocket 4.5 21:02:21 10° SSW 21:08:38 60° WNW 21:14:51 10° N
GP-B 4.1 21:09:21 10° NNW 21:13:33 42° W 21:16:14 20° SW
Cosmos 1833 4.3 21:14:09 39° SSE 21:16:01 55° ESE 21:21:40 10° NNE
ISS -2.0 21:13:42 10° W 21:15:56 24° WSW 21:15:56 24° WSW
Spot 2 Rocket 4.4 21:14:48 23° SSW 21:17:33 42° W 21:22:25 10° NNW
Cosmos 2333 Rocket 3.2 21:13:18 10° NNW 21:18:31 36° NE 21:20:38 27° E
Meteor 1-10 Rocket 4.2 21:15:38 10° N 21:21:11 71° ENE 21:22:51 45° SSE
Cosmos 1371 Rocket 4.0 21:16:19 10° NNW 21:21:43 84° WSW 21:23:22 46° SSE
Cosmos 2112 Rocket 4.3 21:17:49 17° SSW 21:21:57 68° WNW 21:27:13 10° NNE
Cosmos 1680 Rocket 4.0 21:17:28 11° SW 21:22:28 58° WNW 21:27:41 10° NNE
Cosmos 1500 Rocket 4.0 21:22:35 43° E 21:22:35 43° E 21:26:45 10° NNE
Cosmos 1812 2.8 21:18:46 10° NNW 21:22:37 69° W 21:23:03 61° SW
Cosmos 220 Rocket 4.2 21:20:46 10° NNW 21:25:04 65° WSW 21:25:50 53° SSW
Okean 3 Rocket 4.4 21:24:58 25° SW 21:27:15 48° WNW 21:31:38 10° N
USA 234 4.2 21:22:42 11° E 21:28:34 43° NNE 21:34:40 10° NW
Cosmos 2322 4.5 21:23:28 10° NNW 21:28:53 41° ENE 21:30:49 32° E
Cosmos 292 Rocket 3.8 21:28:11 10° NNW 21:32:57 67° ENE 21:33:40 57° ESE
Meteor 2-16 Rocket 4.3 21:35:25 42° S 21:37:39 84° E 21:43:45 10° N
Cosmos 2237 Rocket 4.4 21:35:13 10° N 21:38:43 16° NE 21:42:14 10° E
Cosmos 2322 Rocket 2.7 21:34:44 10° NW 21:40:07 48° WSW 21:41:46 37° SSW
Cosmos 1408 Rocket 3.8 21:40:12 51° SW 21:41:05 64° W 21:45:24 10° N
Cosmos 1743 Rocket 3.5 21:42:22 69° E 21:42:25 69° E 21:46:51 10° NNE
Cosmos 2285 Rocket 4.5 21:39:40 10° NNW 21:45:47 49° ENE 21:47:43 38° ESE
IRIDIUM 106 4.4 21:42:30 10° N 21:47:41 60° E 21:48:18 56° ESE
Cosmos 2315 Rocket 4.1 21:44:21 10° N 21:50:40 65° E 21:52:17 49° SE
Sich 1 4.0 21:51:49 34° ENE 21:51:49 34° ENE 21:55:07 10° NNE
Cosmos 2084 4.4 21:48:52 17° WSW 21:51:44 43° NW 21:55:45 10° NNE
Cosmos 2266 Rocket 3.9 21:53:30 45° SSW 21:55:34 82° W 22:01:50 10° N
Gbstr 26 Del rocket 4.3 21:53:11 10° WNW 21:55:27 27° WSW 21:55:27 27° WSW
Cosmos 1048 Rocket 4.3 21:59:25 49° E 21:59:25 49° E 22:04:01 10° NNE
Cosmos 2219 Rocket 2.3 21:56:23 10° NNW 22:01:57 62° ENE 22:02:58 53° ESE
BREEZE-M DEB (TANK) 4.5 21:49:46 10° SW 22:05:45 61° SSE 22:10:27 10° ENE
Cosmos 2228 Rocket 3.0 22:01:52 10° N 22:06:05 79° NNE 22:06:05 79° NNE
Cosmos 1515 Rocket 4.5 22:02:11 10° NNW 22:06:19 39° W 22:06:43 38° WSW
H-2A R/B 4.5 22:02:28 10° N 22:06:26 42° WNW 22:07:15 37° W
SL-16 R/B 3.9 22:04:02 10° NW 22:08:16 22° W 22:09:55 19° SW
COSMOS 2455 2.7 22:09:10 57° SSW 22:10:29 81° ESE 22:16:32 10° NNE
NOSS 3-1 (C) 4.0 22:03:43 10° NW 22:11:20 90° S 22:14:30 44° SE
Cosmos 2333 4.0 22:05:54 10° NNW 22:11:32 80° WSW 22:12:13 68° S
Cosmos 1420 Rocket 4.4 22:07:59 10° NNW 22:13:08 50° WSW 22:13:43 48° SW
COSMOS 2428 2.8 22:11:00 10° NNW 22:16:42 67° ENE 22:17:35 58° ESE
Spot 4 3.7 22:21:45 88° ENE 22:21:45 88° ENE 22:26:37 10° NNW
USA 229 DEB 4.0 22:18:08 10° NW 22:25:30 74° NE 22:28:16 43° SE
USA 229 4.0 22:18:14 10° NW 22:25:36 73° NE 22:28:23 43° SE
Terra 3.8 22:26:49 16° WSW 22:27:51 17° W 22:31:01 10° NW
ATLAS 5 CENTAUR R/B 2.8 22:23:22 10° NNW 22:28:49 56° NE 22:30:39 41° E
COSMOS 2487 4.2 22:31:49 30° N 22:31:49 30° N 22:33:50 10° N
Cosmos 1452 Rocket 3.5 22:27:30 10° NNW 22:32:43 67° WSW 22:32:49 67° WSW
Cosmos 1707 Rocket 3.9 22:28:34 10° N 22:32:18 59° NNE 22:32:18 59° NNE
ALOS 2 2.9 22:33:57 61° NE 22:33:57 61° NE 22:37:50 10° N
USA 267 3.4 22:31:26 10° NE 22:37:56 70° NW 22:44:26 10° WSW
SL-08 ROCKET BODY 4.3 22:44:13 68° SE 22:44:51 75° E 22:50:59 10° NNE
NOSS 3-1 (A) 4.0 22:38:24 10° NW 22:46:01 89° SW 22:48:48 48° SE
Nadezhda 2 Rocket 4.5 22:49:09 61° SSW 22:50:18 78° W 22:56:45 10° N
Cosmos 2360 Rocket 3.8 22:47:21 10° NW 22:51:33 22° W 22:51:53 22° WSW
Meteor 1-20 Rocket 4.5 22:54:51 52° WSW 22:55:39 57° WNW 23:01:15 10° N
Cosmos 1110 Rocket 4.0 22:53:28 10° NNW 22:58:40 76° W 22:58:40 76° W
Cosmos 1980 4.0 22:54:57 10° NNW 23:00:34 59° ENE 23:01:19 54° E
Cosmos 2333 Rocket 3.0 22:57:37 10° NW 23:02:38 37° WSW 23:02:38 37° WSW
Cosmos 1331 Rocket 4.0 22:58:59 10° NNW 23:03:58 74° WNW 23:03:58 74° WNW
USA 234 3.1 23:10:02 61° SSE 23:11:17 79° SW 23:17:52 10° NW
Cosmos 1340 Rocket 4.4 23:13:35 29° NE 23:13:35 29° NE 23:15:51 10° NNE
Nimbus 7 Rocket 4.2 23:07:22 10° NNE 23:13:26 89° ESE 23:14:02 74° SSW
NOSS 0 Rocket 3.8 23:09:17 10° NNW 23:15:32 78° WSW 23:16:01 73° SSW
Cosmos 2297 Rocket 2.3 23:17:11 61° E 23:17:11 61° E 23:22:33 10° NNE
Okean 1-7 4.1 23:15:33 10° N 23:18:54 37° NE 23:18:54 37° NE
Lacrosse 5 2.5 23:21:58 46° ENE 23:21:58 46° ENE 23:25:42 10° NE
Cosmos 2237 Rocket 2.1 23:17:59 10° NNW 23:23:43 82° ENE 23:24:02 78° ESE
Cosmos 2084 Rocket 4.2 23:20:55 10° NW 23:24:08 49° NNW 23:24:08 49° NNW
Cosmos 2242 Rocket 4.4 23:21:26 10° N 23:25:08 45° NE 23:25:08 45° NE
Cosmos 1470 Rocket 4.2 23:29:03 53° NNW 23:29:03 53° NNW 23:32:29 10° N
Cosmos 2227 Rocket 2.4 23:28:53 57° E 23:28:53 57° E 23:34:12 10° NNE
Cosmos 909 Rocket 4.2 23:31:44 56° SE 23:32:21 59° ESE 23:39:39 10° NE
Cosmos 1633 Rocket 4.2 23:33:06 36° WNW 23:33:06 36° WNW 23:36:39 10° N
Cosmos 1933 Rocket 4.0 23:35:34 59° NNE 23:35:34 59° NNE 23:39:15 10° N
Timation 1 Rocket 4.5 23:41:04 58° ESE 23:41:10 58° ESE 23:47:03 10° NE
Meteor 1-11 Rocket 3.9 23:41:19 57° ESE 23:41:28 57° E 23:46:53 10° NNE
Cosmos 2219 Rocket 3.9 23:41:25 10° NW 23:44:40 19° W 23:44:40 19° W
Cosmos 2263 Rocket 4.2 23:46:36 14° ESE 23:47:06 15° E 23:50:05 10° ENE
Cosmos 1269 Rocket 4.1 23:50:05 63° WNW 23:50:16 64° WNW 23:55:32 10° NNE
NOSS 2-2 (C) 4.4 23:45:15 10° NW 23:50:44 88° NE 23:52:22 55° SE
SL-16 R/B 2.9 23:45:31 10° NNW 23:51:02 50° ENE 23:52:42 38° ESE
Cosmos 1992 Rocket 4.2 23:46:27 10° NNW 23:51:39 61° ENE 23:52:06 59° E
PSLV R/B 4.0 23:47:46 10° N 23:52:12 68° NW 23:52:12 68° NW
Resurs 1-4 Rocket 3.7 23:50:29 10° NE 23:54:35 22° E 23:55:13 22° ESE
